DW0407 Weather Reports


Display with metric or nautical units.
time (UTC)temp
F
wind
direction
speed
MPH
gust
MPH
rain 1hr
in
rain 24hr
in
rain mn
in
humidity
%
barometer
mb
20260505181525 80 186 9.0 21.0 0.00 0.00 0.00 45 1007.1
20260505180017 80 126 11.0 22.0 0.00 0.00 0.00 45 1007.3
20260505174519 79 227 10.0 22.0 0.00 0.00 0.00 45 1007.4
20260505173018 79 179 6.0 19.0 0.00 0.00 0.00 50 1007.4
20260505171524 79 215 8.0 18.0 0.00 0.00 0.00 47 1007.7
20260505170024 79 165 9.0 21.0 0.00 0.00 0.00 49 1007.9
20260505164510 79 228 8.0 23.0 0.00 0.00 0.00 49 1008.1
20260505163049 79 259 8.0 23.0 0.00 0.00 0.00 50 1008.4
20260505161520 78 240 10.0 25.0 0.00 0.00 0.00 48 1008.6
20260505151520 76 229 8.0 17.0 0.00 0.00 0.00 56 1008.8
20260505124522 63 146 5.0 10.0 0.00 0.00 0.00 75 1009.8
20260505123049 62 210 4.0 10.0 0.00 0.00 0.00 77 1009.9
20260505121526 61 186 5.0 14.0 0.00 0.00 0.00 77 1009.9
20260505120014 60 159 4.0 11.0 0.00 0.00 0.00 80 1009.9
20260505114523 59 182 3.0 10.0 0.00 0.00 0.00 82 1009.6
20260505113015 58 152 5.0 10.0 0.00 0.00 0.00 83 1009.4
20260505111506 57 140 3.0 9.0 0.00 0.00 0.00 84 1009.1
20260505101523 56 162 3.0 8.0 0.00 0.00 0.00 85 1008.5
20260505100004 56 183 4.0 9.0 0.00 0.00 0.00 84 1008.5
20260505094506 57 173 2.0 7.0 0.00 0.00 0.00 83 1008.6
20260505093011 57 182 4.0 9.0 0.00 0.00 0.00 83 1008.5
20260505091505 57 210 2.0 10.0 0.00 0.00 0.00 82 1008.4
20260505084508 57 208 5.0 12.0 0.00 0.00 0.00 82 1008.1
20260505083007 58 149 5.0 11.0 0.00 0.00 0.00 80 1008.1
20260505081507 59 199 3.0 8.0 0.00 0.00 0.00 79 1008.1
20260505073008 59 212 1.0 7.0 0.00 0.00 0.00 78 1008.0
20260505071507 60 169 3.0 8.0 0.00 0.00 0.00 77 1007.7
20260505070007 60 169 4.0 7.0 0.00 0.00 0.00 76 1007.8
20260505063009 61 140 2.0 8.0 0.00 0.00 0.00 74 1007.9
20260505061512 61 191 3.0 8.0 0.00 0.00 0.00 74 1008.0
20260505060022 62 188 3.0 7.0 0.00 0.00 0.00 72 1008.0
20260505054516 63 155 4.0 9.0 0.00 0.00 0.00 71 1008.0
20260505051510 64 194 5.0 13.0 0.00 0.00 0.00 68 1008.1
20260505040017 66 200 7.0 11.0 0.00 0.00 0.00 64 1007.7
20260505034513 66 200 5.0 11.0 0.00 0.00 0.00 64 1007.6
20260505033017 67 196 6.0 12.0 0.00 0.00 0.00 62 1007.6
20260505024513 67 173 4.0 11.0 0.00 0.00 0.00 60 1007.6
20260505023017 68 198 5.0 13.0 0.00 0.00 0.00 59 1007.7
20260505021515 69 190 5.0 11.0 0.00 0.00 0.00 58 1007.7
20260505014516 70 210 4.0 11.0 0.00 0.00 0.00 55 1007.4
20260505013016 70 196 6.0 11.0 0.00 0.00 0.00 55 1007.4
20260505011520 71 202 5.0 14.0 0.00 0.00 0.00 53 1007.4
20260505010014 71 204 7.0 17.0 0.00 0.00 0.00 53 1006.9
20260505004534 70 207 6.0 11.0 0.00 0.00 0.00 53 1006.7
20260505003016 70 180 5.0 10.0 0.00 0.00 0.00 52 1006.6
20260505001521 71 198 3.0 9.0 0.00 0.00 0.00 52 1006.6
20260505000022 71 200 5.0 10.0 0.00 0.00 0.00 50 1006.6
20260504234526 72 228 2.0 10.0 0.00 0.00 0.00 50 1006.5
20260504233016 73 183 4.0 14.0 0.00 0.00 0.00 48 1006.5
20260504231535 74 179 5.0 14.0 0.00 0.00 0.00 47 1006.4
20260504230006 74 171 6.0 12.0 0.00 0.00 0.00 47 1006.4
20260504224509 74 174 5.0 12.0 0.00 0.00 0.00 46 1006.4
20260504223010 74 232 5.0 11.0 0.00 0.00 0.00 46 1006.5
20260504221518 75 241 5.0 12.0 0.00 0.00 0.00 46 1006.5
20260504220020 75 145 6.0 14.0 0.00 0.00 0.00 46 1006.5
20260504214509 74 238 4.0 13.0 0.00 0.00 0.00 47 1006.6
20260504213009 74 202 6.0 17.0 0.00 0.00 0.00 46 1006.5
20260504211514 75 223 8.0 14.0 0.00 0.00 0.00 45 1006.5
20260504210020 74 215 4.0 13.0 0.00 0.00 0.00 49 1006.6
20260504204549 74 142 8.0 15.0 0.00 0.00 0.00 46 1006.6
20260504203009 74 198 5.0 21.0 0.00 0.00 0.00 48 1006.7
20260504201511 74 188 5.0 13.0 0.00 0.00 0.00 47 1006.9
20260504200016 74 240 7.0 17.0 0.00 0.00 0.00 49 1007.2
20260504194521 74 199 7.0 19.0 0.00 0.00 0.00 47 1007.5
20260504193025 73 227 5.0 14.0 0.00 0.00 0.00 49 1007.7
20260504191508 73 192 8.0 14.0 0.00 0.00 0.00 49 1008.0
20260504190016 72 194 6.0 17.0 0.00 0.00 0.00 47 1008.3
20260504184519 72 248 7.0 17.0 0.00 0.00 0.00 47 1008.5
20260504183026 71 231 9.0 18.0 0.00 0.00 0.00 48 1008.9